Regional Weather Roundup
Issued by NWS

Home | Current Version | Previous Version | Graphics & Text | Print | Product List | Glossary On
Versions: 1 2 3 4 5 6 7 8 9 10 11 12 13 14 15 16 17 18 19 20 21 22 23 24 25 26 27 28 29 30 31 32 33 34 35 36 37 38 39 40 41 42 43 44 45 46 47 48 49 50
000
ASUS43 KIND 131409
RWRIN

WEATHER ROUNDUP FOR INDIANA
NATIONAL WEATHER SERVICE INDIANAPOLIS IN
900 AM EST SAT FEB 13 2016

NOTE: "FAIR" INDICATES FEW OR NO CLOUDS BELOW 12,000 FEET WITH NO
SIGNIFICANT WEATHER AND/OR OBSTRUCTIONS TO VISIBILITY.

* - STATION DOES NOT REPORT WEATHER SUCH AS PRECIPITATION OR FOG.

+ - STATION NOT QUALITY CONTROLLED BY THE NATIONAL WEATHER SERVICE.
    USE DATA WITH CAUTION...ESPECIALLY DEWPOINT AND RELATIVE
    HUMIDITY OBSERVATIONS.

INZ001>003-010>013-019-020-131500-
NORTHWEST INDIANA

CITY           SKY/WX    TMP DP  RH WIND       PRES   REMARKS
GARY /AIRPORT/ MOSUNNY    9  -9  43 W14       30.58R WCI  -8
KNOX *+        PTSUNNY    5  -6  61 W12       30.54R WCI -11
LA PORTE +     LGT SNOW  11   4  72 W9        30.52R WCI  -1
MICHIGAN CITY+ FLURRIES  12   3  67 NW14G21   30.53R WCI  -3
MONTICELLO +   MOSUNNY    6 -10  47 NW14      30.55R WCI -11
RENSSELAER +   MOSUNNY    9 -13  37 NW9       30.57R WCI  -5
VALPARAISO     PTSUNNY    5  -7  57 W14       30.54R WCI -12

$$

LMZ046-743>745-131500-
SOUTHERN LAKE MICHIGAN

STATION/POSITION TIME  TEMP    WIND        PRES    WAVE
                       AIR SEA DIR/SP/G            HT
                 (UTC) (F)     (DEG/KT/KT) (MB)    (FT)
BURNS HARBOR     1308    9     300/ 15/ 22 1034.2R
MICHIGAN CITY    1300   11     290/ 19/ 22   N/A

$$

INZ004-005-014>016-021>024-131500-
NORTH CENTRAL INDIANA

CITY           SKY/WX    TMP DP  RH WIND       PRES   REMARKS
ELKHART          N/A    N/A N/A N/A MISG      30.48
GOSHEN         CLOUDY     7   2  80 SW8       30.47S WCI  -6
LOGANSPORT +   MOSUNNY    9  -8  47 NW10      30.54S WCI  -6
PERU/GRISSOM   SUNNY      6  -3  64 NW10      30.50R WCI  -8
ROCHESTER +    MOSUNNY    9  -6  52 W10       30.52R WCI  -6
SOUTH BEND     SNOW      10   5  80 NW12      30.49R VSB 1/2 WCI  -5
WARSAW +       LGT SNOW  10   5  79 W8        30.48S WCI  -1

$$

INZ006>009-017-018-025>027-131500-
NORTHEAST INDIANA

CITY           SKY/WX    TMP DP  RH WIND       PRES   REMARKS
ANGOLA *+      CLOUDY     5   0  78 W6        30.43R WCI  -6
AUBURN +       LGT SNOW   9   1  72 W6        30.48R WCI  -1
FORT WAYNE     CLOUDY     5  -3  69 W10       30.50R WCI -10
HUNTINGTON +   FLURRIES   6  -2  69 W8        30.51R WCI  -7

$$

INZ028-029-035-036-043>045-051>053-131500-
WEST CENTRAL INDIANA

CITY           SKY/WX    TMP DP  RH WIND       PRES   REMARKS
CRAWFORDSVL +  MOSUNNY    5  -9  52 NW10      30.56R WCI -10
GREENCASTLE +  SUNNY      9  -9  43 NW6       30.56R WCI  -1
LAFAYETTE      SUNNY      6  -7  54 NW14      30.58R WCI -11
TERRE HAUTE    MOSUNNY    9  -4  55 N10       30.61R WCI  -5

$$

INZ030>032-037>040-046>048-054>057-064-065-131500-
CENTRAL INDIANA

CITY           SKY/WX    TMP DP  RH WIND       PRES   REMARKS
ANDERSON       SUNNY      7   1  78 W12       30.53  WCI  -9
FISHERS *+     MOSUNNY    9   0  66 NW9       30.54R WCI  -5
FRANKFORT +    SUNNY      8 -10  44 NW12      30.54S WCI  -7
GREENWOOD *+   SUNNY     10   1  67 NW8       30.55R WCI  -1
INDIANAPOLIS   NOT AVBL
-EAGLE CREEK   MOSUNNY    8  -2  63 NW9       30.54R WCI  -5
KOKOMO *+      MOSUNNY    7  -4  61 NW14      30.52R WCI -10
MARION +       MOSUNNY    5  -7  59 NW5       30.52R WCI  -4
MT COMFORT *+  MOSUNNY    9  -2  61 NW10      30.53R WCI  -6
SHELBYVILLE    SUNNY     10   0  63 NW7       30.54R WCI  -1
ZIONSVILLE +   MOSUNNY    7  -2  66 NW10      30.53R WCI  -7

$$

INZ033-034-041-042-049-050-058-059-131500-
EAST CENTRAL INDIANA

CITY           SKY/WX    TMP DP  RH WIND       PRES   REMARKS
MUNCIE         CLOUDY     8  -1  66 NW5       30.51R WCI   0

$$

INZ060-061-067>069-081>083-085>088-131500-
SOUTHWEST INDIANA

CITY           SKY/WX    TMP DP  RH WIND       PRES   REMARKS
EVANSVILLE     MOSUNNY   17   2  51 N8        30.64R WCI   7
HUNTINGBURG *+ MOSUNNY   14   0  52 N12       30.61R WCI   0
WASHINGTON +   MOSUNNY   13  -3  50 N10       30.61R WCI  -1

$$

INZ062-063-066-070>080-084-089>092-131500-
SOUTH CENTRAL AND SOUTHEAST INDIANA

CITY           SKY/WX    TMP DP  RH WIND       PRES   REMARKS
BEDFORD +      MOSUNNY   12  -2  52 NW7       30.58R WCI   2
BLOOMINGTON    MOSUNNY   10  -5  50 NW5       30.56R WCI   2
MADISON *+     MOSUNNY   14   1  57 NW5       30.56R WCI   6
NORTH VERNON + SUNNY     12   1  62 CALM      30.55R
SEYMOUR +      SUNNY     14   0  52 NW9       30.58R WCI   2

$$




USA.gov is the U.S. government's official web portal to all federal, state and local government web resources and services.